| time (UTC) | temp F | wind direction | speed MPH | gust MPH | rain 1hr in | rain 24hr in | rain mn in | humidity % | barometer mb |
| 20260507114004 | 38 | 270 | 1.0 | 3.0 | 0.00 | 0.00 | 0.00 | 82 | 1011.9 |
| 20260507113504 | 38 | 245 | 1.0 | 4.0 | 0.00 | 0.00 | 0.00 | 82 | 1011.9 |
| 20260507112504 | 38 | 286 | 0.0 | 4.0 | 0.00 | 0.00 | 0.00 | 81 | 1012.0 |
| 20260507112004 | 38 | 280 | 1.0 | 7.0 | 0.00 | 0.00 | 0.00 | 81 | 1012.0 |
| 20260507111506 | 39 | 277 | 1.0 | 7.0 | 0.00 | 0.00 | 0.00 | 81 | 1012.0 |
| 20260507111004 | 39 | 274 | 2.0 | 8.0 | 0.00 | 0.00 | 0.00 | 81 | 1012.1 |
| 20260507110504 | 39 | 265 | 2.0 | 8.0 | 0.00 | 0.00 | 0.00 | 81 | 1012.1 |
| 20260507104504 | 39 | 243 | 2.0 | 5.0 | 0.00 | 0.00 | 0.00 | 81 | 1012.3 |
| 20260507104004 | 39 | 244 | 2.0 | 8.0 | 0.00 | 0.00 | 0.00 | 80 | 1012.4 |
| 20260507103504 | 39 | 237 | 3.0 | 9.0 | 0.00 | 0.00 | 0.00 | 80 | 1012.3 |
| 20260507103004 | 39 | 237 | 3.0 | 9.0 | 0.00 | 0.00 | 0.00 | 80 | 1012.3 |
| 20260507102504 | 39 | 238 | 3.0 | 9.0 | 0.00 | 0.00 | 0.00 | 79 | 1012.4 |
| 20260507102006 | 39 | 240 | 3.0 | 8.0 | 0.00 | 0.00 | 0.00 | 79 | 1012.5 |
| 20260507101504 | 40 | 246 | 3.0 | 8.0 | 0.00 | 0.00 | 0.00 | 78 | 1012.6 |
| 20260507101004 | 40 | 244 | 2.0 | 8.0 | 0.00 | 0.00 | 0.00 | 78 | 1012.6 |
| 20260507100011 | 40 | 240 | 3.0 | 9.0 | 0.00 | 0.00 | 0.00 | 77 | 1012.8 |
| 20260507095505 | 40 | 240 | 3.0 | 9.0 | 0.00 | 0.00 | 0.00 | 77 | 1012.8 |
| 20260507095004 | 40 | 241 | 3.0 | 9.0 | 0.00 | 0.00 | 0.00 | 77 | 1012.9 |
| 20260507094004 | 41 | 232 | 4.0 | 12.0 | 0.00 | 0.00 | 0.00 | 76 | 1012.9 |
| 20260507093504 | 41 | 233 | 4.0 | 12.0 | 0.00 | 0.00 | 0.00 | 76 | 1013.0 |
| 20260507093004 | 41 | 244 | 3.0 | 10.0 | 0.00 | 0.00 | 0.00 | 75 | 1013.0 |
| 20260507092004 | 41 | 237 | 4.0 | 11.0 | 0.00 | 0.00 | 0.00 | 75 | 1013.1 |
| 20260507091504 | 41 | 240 | 4.0 | 11.0 | 0.00 | 0.00 | 0.00 | 75 | 1013.0 |
| 20260507091004 | 41 | 241 | 3.0 | 11.0 | 0.00 | 0.00 | 0.00 | 75 | 1013.2 |
| 20260507090504 | 41 | 240 | 3.0 | 11.0 | 0.00 | 0.00 | 0.00 | 75 | 1013.2 |
| 20260507085504 | 41 | 234 | 4.0 | 8.0 | 0.00 | 0.00 | 0.00 | 75 | 1013.4 |
| 20260507085004 | 41 | 240 | 3.0 | 7.0 | 0.00 | 0.00 | 0.00 | 76 | 1013.6 |
| 20260507084505 | 41 | 234 | 3.0 | 10.0 | 0.00 | 0.00 | 0.00 | 76 | 1013.6 |
| 20260507084004 | 41 | 236 | 3.0 | 10.0 | 0.00 | 0.00 | 0.00 | 76 | 1013.7 |
| 20260507083504 | 41 | 238 | 3.0 | 8.0 | 0.00 | 0.00 | 0.00 | 77 | 1013.7 |
| 20260507083004 | 41 | 234 | 2.0 | 8.0 | 0.00 | 0.00 | 0.00 | 77 | 1013.8 |
| 20260507082504 | 42 | 242 | 2.0 | 9.0 | 0.00 | 0.00 | 0.00 | 77 | 1013.9 |
| 20260507082004 | 42 | 245 | 3.0 | 11.0 | 0.00 | 0.00 | 0.00 | 77 | 1014.0 |
| 20260507081504 | 41 | 243 | 3.0 | 11.0 | 0.00 | 0.00 | 0.00 | 77 | 1014.0 |
| 20260507080504 | 41 | 239 | 3.0 | 11.0 | 0.00 | 0.00 | 0.00 | 78 | 1014.2 |
| 20260507080005 | 42 | 249 | 4.0 | 11.0 | 0.00 | 0.00 | 0.00 | 78 | 1014.2 |
| 20260507075505 | 42 | 248 | 3.0 | 11.0 | 0.00 | 0.00 | 0.00 | 78 | 1014.3 |
| 20260507075004 | 42 | 237 | 3.0 | 10.0 | 0.00 | 0.00 | 0.00 | 78 | 1014.5 |
| 20260507074504 | 42 | 236 | 4.0 | 10.0 | 0.00 | 0.00 | 0.00 | 78 | 1014.5 |
| 20260507074004 | 42 | 237 | 3.0 | 9.0 | 0.00 | 0.00 | 0.00 | 78 | 1014.4 |
| 20260507073504 | 42 | 238 | 3.0 | 8.0 | 0.00 | 0.00 | 0.00 | 79 | 1014.7 |
| 20260507073004 | 42 | 241 | 3.0 | 7.0 | 0.00 | 0.00 | 0.00 | 78 | 1014.6 |
| 20260507072504 | 42 | 242 | 3.0 | 11.0 | 0.00 | 0.00 | 0.00 | 78 | 1014.7 |
| 20260507071504 | 42 | 238 | 3.0 | 11.0 | 0.00 | 0.00 | 0.00 | 79 | 1014.7 |
| 20260507070504 | 42 | 234 | 3.0 | 9.0 | 0.00 | 0.00 | 0.00 | 79 | 1014.8 |
| 20260507065503 | 42 | 233 | 3.0 | 9.0 | 0.00 | 0.00 | 0.00 | 78 | 1014.7 |
| 20260507065004 | 42 | 226 | 3.0 | 10.0 | 0.00 | 0.00 | 0.00 | 78 | 1014.7 |
| 20260507064504 | 42 | 229 | 4.0 | 10.0 | 0.00 | 0.00 | 0.00 | 78 | 1014.7 |
| 20260507064004 | 42 | 232 | 4.0 | 10.0 | 0.00 | 0.00 | 0.00 | 78 | 1014.8 |
| 20260507062504 | 43 | 225 | 3.0 | 9.0 | 0.00 | 0.00 | 0.00 | 77 | 1015.0 |
| 20260507062004 | 43 | 225 | 4.0 | 9.0 | 0.00 | 0.00 | 0.00 | 77 | 1015.0 |
| 20260507061004 | 43 | 223 | 4.0 | 11.0 | 0.00 | 0.00 | 0.00 | 77 | 1015.1 |
| 20260507060504 | 43 | 221 | 4.0 | 12.0 | 0.00 | 0.00 | 0.00 | 76 | 1015.1 |
| 20260507060004 | 43 | 219 | 5.0 | 12.0 | 0.00 | 0.00 | 0.00 | 76 | 1015.1 |
| 20260507055504 | 44 | 228 | 4.0 | 12.0 | 0.00 | 0.00 | 0.00 | 76 | 1015.2 |
| 20260507055004 | 44 | 228 | 5.0 | 12.0 | 0.00 | 0.00 | 0.00 | 75 | 1015.2 |
| 20260507054504 | 44 | 227 | 4.0 | 15.0 | 0.00 | 0.00 | 0.00 | 75 | 1015.2 |
| 20260507054004 | 44 | 229 | 5.0 | 15.0 | 0.00 | 0.00 | 0.00 | 74 | 1015.2 |
| 20260507053504 | 44 | 224 | 6.0 | 12.0 | 0.00 | 0.00 | 0.00 | 74 | 1015.3 |
| 20260507053005 | 44 | 222 | 6.0 | 13.0 | 0.00 | 0.00 | 0.00 | 74 | 1015.4 |
| 20260507052505 | 44 | 224 | 5.0 | 13.0 | 0.00 | 0.00 | 0.00 | 74 | 1015.5 |
| 20260507052003 | 44 | 224 | 4.0 | 12.0 | 0.00 | 0.00 | 0.00 | 73 | 1015.4 |
| 20260507051004 | 44 | 227 | 6.0 | 13.0 | 0.00 | 0.00 | 0.00 | 73 | 1015.5 |
| 20260507050504 | 44 | 232 | 5.0 | 13.0 | 0.00 | 0.00 | 0.00 | 73 | 1015.6 |
| 20260507050006 | 44 | 226 | 5.0 | 13.0 | 0.00 | 0.00 | 0.00 | 72 | 1015.7 |
| 20260507045504 | 44 | 220 | 5.0 | 10.0 | 0.00 | 0.00 | 0.00 | 72 | 1015.7 |
| 20260507045004 | 45 | 222 | 5.0 | 11.0 | 0.00 | 0.00 | 0.00 | 72 | 1015.7 |
| 20260507044004 | 45 | 227 | 5.0 | 12.0 | 0.00 | 0.00 | 0.00 | 71 | 1015.9 |
| 20260507043504 | 45 | 228 | 5.0 | 16.0 | 0.00 | 0.00 | 0.00 | 71 | 1016.0 |
| 20260507043004 | 45 | 228 | 6.0 | 16.0 | 0.00 | 0.00 | 0.00 | 71 | 1016.1 |
| 20260507042004 | 45 | 228 | 4.0 | 13.0 | 0.00 | 0.00 | 0.00 | 70 | 1016.2 |
| 20260507041503 | 45 | 227 | 5.0 | 12.0 | 0.00 | 0.00 | 0.00 | 69 | 1016.2 |
| 20260507040004 | 45 | 227 | 4.0 | 10.0 | 0.00 | 0.00 | 0.00 | 67 | 1016.4 |
| 20260507035504 | 45 | 224 | 4.0 | 10.0 | 0.00 | 0.00 | 0.00 | 66 | 1016.4 |
| 20260507035009 | 46 | 222 | 4.0 | 9.0 | 0.00 | 0.00 | 0.00 | 65 | 1016.4 |
| 20260507034505 | 46 | 222 | 4.0 | 9.0 | 0.00 | 0.00 | 0.00 | 64 | 1016.4 |
| 20260507033504 | 46 | 226 | 3.0 | 9.0 | 0.00 | 0.00 | 0.00 | 63 | 1016.3 |
| 20260507033004 | 46 | 226 | 3.0 | 10.0 | 0.00 | 0.00 | 0.00 | 62 | 1016.4 |
| 20260507032004 | 46 | 219 | 4.0 | 10.0 | 0.00 | 0.00 | 0.00 | 59 | 1016.4 |
| 20260507031504 | 47 | 222 | 4.0 | 10.0 | 0.00 | 0.00 | 0.00 | 58 | 1016.4 |
| 20260507031004 | 47 | 226 | 3.0 | 8.0 | 0.00 | 0.00 | 0.00 | 57 | 1016.4 |
| 20260507030504 | 47 | 228 | 3.0 | 6.0 | 0.00 | 0.00 | 0.00 | 56 | 1016.4 |
| 20260507030003 | 47 | 226 | 3.0 | 7.0 | 0.00 | 0.00 | 0.00 | 55 | 1016.4 |
| 20260507025503 | 48 | 221 | 3.0 | 7.0 | 0.00 | 0.00 | 0.00 | 53 | 1016.4 |
| 20260507024003 | 48 | 221 | 2.0 | 8.0 | 0.00 | 0.00 | 0.00 | 50 | 1016.4 |
| 20260507023004 | 49 | 230 | 1.0 | 4.0 | 0.00 | 0.00 | 0.00 | 48 | 1016.3 |
| 20260507022504 | 49 | 228 | 1.0 | 4.0 | 0.00 | 0.00 | 0.00 | 47 | 1016.3 |
| 20260507022003 | 50 | 234 | 1.0 | 6.0 | 0.00 | 0.00 | 0.00 | 46 | 1016.3 |
| 20260507021504 | 50 | 231 | 2.0 | 6.0 | 0.00 | 0.00 | 0.00 | 45 | 1016.3 |
| 20260507020504 | 51 | 238 | 1.0 | 5.0 | 0.00 | 0.00 | 0.00 | 43 | 1016.2 |
| 20260507020004 | 51 | 225 | 2.0 | 7.0 | 0.00 | 0.00 | 0.00 | 43 | 1016.2 |
| 20260507015004 | 52 | 240 | 2.0 | 6.0 | 0.00 | 0.00 | 0.00 | 42 | 1016.2 |
| 20260507014503 | 52 | 235 | 2.0 | 6.0 | 0.00 | 0.00 | 0.00 | 41 | 1016.2 |
| 20260507014004 | 53 | 237 | 2.0 | 9.0 | 0.00 | 0.00 | 0.00 | 40 | 1016.2 |
| 20260507013004 | 53 | 236 | 2.0 | 7.0 | 0.00 | 0.00 | 0.00 | 38 | 1016.2 |
| 20260507012503 | 54 | 241 | 3.0 | 10.0 | 0.00 | 0.00 | 0.00 | 37 | 1016.2 |
| 20260507012003 | 54 | 241 | 3.0 | 10.0 | 0.00 | 0.00 | 0.00 | 36 | 1016.3 |
| 20260507011503 | 54 | 250 | 3.0 | 10.0 | 0.00 | 0.00 | 0.00 | 37 | 1016.3 |
| 20260507011003 | 55 | 270 | 2.0 | 7.0 | 0.00 | 0.00 | 0.00 | 37 | 1016.3 |
| 20260507010504 | 55 | 281 | 2.0 | 8.0 | 0.00 | 0.00 | 0.00 | 36 | 1016.3 |
| 20260507010004 | 55 | 280 | 2.0 | 8.0 | 0.00 | 0.00 | 0.00 | 35 | 1016.3 |
| 20260507005504 | 55 | 277 | 1.0 | 4.0 | 0.00 | 0.00 | 0.00 | 36 | 1016.2 |
| 20260507005004 | 55 | 263 | 1.0 | 7.0 | 0.00 | 0.00 | 0.00 | 36 | 1016.2 |
| 20260507004004 | 55 | 271 | 2.0 | 9.0 | 0.00 | 0.00 | 0.00 | 34 | 1016.3 |
| 20260507003004 | 56 | 248 | 3.0 | 12.0 | 0.00 | 0.00 | 0.00 | 33 | 1016.4 |
| 20260507002504 | 56 | 283 | 3.0 | 13.0 | 0.00 | 0.00 | 0.00 | 33 | 1016.4 |
| 20260507002004 | 56 | 298 | 3.0 | 13.0 | 0.00 | 0.00 | 0.00 | 33 | 1016.3 |
| 20260507001503 | 56 | 295 | 2.0 | 7.0 | 0.00 | 0.00 | 0.00 | 35 | 1016.5 |
| 20260507001004 | 56 | 290 | 3.0 | 7.0 | 0.00 | 0.00 | 0.00 | 34 | 1016.4 |
| 20260507000004 | 55 | 268 | 3.0 | 8.0 | 0.00 | 0.00 | 0.00 | 36 | 1016.6 |
| 20260506234504 | 57 | 273 | 4.0 | 11.0 | 0.00 | 0.00 | 0.00 | 34 | 1016.8 |
| 20260506234004 | 56 | 270 | 4.0 | 11.0 | 0.00 | 0.01 | 0.00 | 34 | 1016.8 |
| 20260506232504 | 56 | 253 | 4.0 | 10.0 | 0.00 | 0.01 | 0.00 | 33 | 1016.9 |
| 20260506232004 | 57 | 266 | 4.0 | 10.0 | 0.00 | 0.01 | 0.00 | 34 | 1016.9 |
| 20260506231504 | 57 | 270 | 4.0 | 11.0 | 0.00 | 0.01 | 0.00 | 34 | 1016.9 |
| 20260506231004 | 57 | 260 | 5.0 | 11.0 | 0.00 | 0.01 | 0.00 | 33 | 1016.9 |
| 20260506230503 | 56 | 268 | 3.0 | 11.0 | 0.00 | 0.01 | 0.00 | 34 | 1016.9 |
| 20260506230003 | 56 | 275 | 3.0 | 8.0 | 0.00 | 0.02 | 0.00 | 35 | 1016.9 |
| 20260506225504 | 55 | 281 | 4.0 | 11.0 | 0.00 | 0.02 | 0.00 | 33 | 1017.0 |
| 20260506224504 | 55 | 302 | 4.0 | 10.0 | 0.00 | 0.02 | 0.00 | 33 | 1017.1 |
| 20260506224003 | 55 | 300 | 5.0 | 11.0 | 0.00 | 0.02 | 0.00 | 32 | 1017.1 |
| 20260506222504 | 56 | 287 | 5.0 | 11.0 | 0.00 | 0.02 | 0.00 | 32 | 1017.2 |
| 20260506221504 | 57 | 279 | 6.0 | 13.0 | 0.00 | 0.02 | 0.00 | 29 | 1017.4 |
| 20260506221004 | 58 | 280 | 4.0 | 15.0 | 0.00 | 0.02 | 0.00 | 30 | 1017.3 |
| 20260506220504 | 57 | 283 | 4.0 | 15.0 | 0.00 | 0.02 | 0.00 | 31 | 1017.3 |
| 20260506220004 | 56 | 271 | 4.0 | 12.0 | 0.00 | 0.02 | 0.00 | 31 | 1017.4 |
| 20260506215504 | 56 | 282 | 5.0 | 15.0 | 0.00 | 0.02 | 0.00 | 33 | 1017.7 |
| 20260506215004 | 55 | 286 | 3.0 | 15.0 | 0.00 | 0.02 | 0.00 | 33 | 1017.6 |
| 20260506214503 | 55 | 268 | 2.0 | 8.0 | 0.00 | 0.02 | 0.00 | 34 | 1017.7 |
| 20260506214004 | 55 | 279 | 4.0 | 16.0 | 0.00 | 0.02 | 0.00 | 35 | 1017.9 |
| 20260506213504 | 55 | 285 | 4.0 | 16.0 | 0.00 | 0.02 | 0.00 | 35 | 1017.8 |
| 20260506213004 | 55 | 285 | 4.0 | 9.0 | 0.00 | 0.02 | 0.00 | 36 | 1018.1 |
| 20260506212503 | 56 | 284 | 4.0 | 9.0 | 0.00 | 0.02 | 0.00 | 34 | 1018.1 |
| 20260506212003 | 56 | 268 | 4.0 | 13.0 | 0.00 | 0.02 | 0.00 | 35 | 1018.2 |
| 20260506211504 | 57 | 266 | 5.0 | 13.0 | 0.00 | 0.02 | 0.00 | 35 | 1018.2 |
| 20260506210504 | 56 | 236 | 5.0 | 14.0 | 0.00 | 0.02 | 0.00 | 33 | 1018.3 |
| 20260506210004 | 56 | 259 | 5.0 | 14.0 | 0.00 | 0.02 | 0.00 | 34 | 1018.5 |
| 20260506205503 | 55 | 276 | 4.0 | 14.0 | 0.00 | 0.02 | 0.00 | 36 | 1018.2 |
| 20260506205003 | 55 | 276 | 2.0 | 9.0 | 0.00 | 0.02 | 0.00 | 36 | 1018.3 |
| 20260506204504 | 54 | 217 | 1.0 | 7.0 | 0.00 | 0.02 | 0.00 | 37 | 1018.4 |
| 20260506203504 | 54 | 239 | 3.0 | 9.0 | 0.00 | 0.02 | 0.00 | 35 | 1018.6 |
| 20260506203004 | 55 | 249 | 4.0 | 10.0 | 0.00 | 0.02 | 0.00 | 38 | 1018.8 |
| 20260506202504 | 55 | 264 | 4.0 | 11.0 | 0.00 | 0.02 | 0.00 | 36 | 1018.7 |
| 20260506202003 | 55 | 263 | 3.0 | 11.0 | 0.00 | 0.02 | 0.00 | 36 | 1018.7 |
| 20260506200504 | 54 | 274 | 4.0 | 14.0 | 0.00 | 0.02 | 0.00 | 36 | 1018.9 |
| 20260506200004 | 54 | 272 | 3.0 | 10.0 | 0.00 | 0.02 | 0.00 | 36 | 1018.9 |
| 20260506195504 | 54 | 253 | 3.0 | 9.0 | 0.00 | 0.02 | 0.00 | 35 | 1019.0 |
| 20260506195003 | 55 | 225 | 3.0 | 10.0 | 0.00 | 0.02 | 0.00 | 35 | 1018.9 |
| 20260506194504 | 54 | 235 | 3.0 | 10.0 | 0.00 | 0.02 | 0.00 | 36 | 1018.9 |
| 20260506194004 | 54 | 260 | 3.0 | 9.0 | 0.00 | 0.02 | 0.00 | 37 | 1019.0 |
| 20260506193504 | 54 | 276 | 2.0 | 7.0 | 0.00 | 0.02 | 0.00 | 36 | 1019.1 |
| 20260506193003 | 53 | 270 | 1.0 | 7.0 | 0.00 | 0.02 | 0.00 | 37 | 1019.1 |
| 20260506192504 | 53 | 254 | 3.0 | 9.0 | 0.00 | 0.02 | 0.00 | 37 | 1019.2 |
| 20260506192004 | 54 | 239 | 4.0 | 12.0 | 0.00 | 0.02 | 0.00 | 37 | 1019.2 |
| 20260506191004 | 52 | 310 | 3.0 | 11.0 | 0.00 | 0.02 | 0.00 | 36 | 1019.3 |
| 20260506190504 | 52 | 329 | 3.0 | 17.0 | 0.00 | 0.02 | 0.00 | 35 | 1019.4 |
| 20260506190004 | 53 | 329 | 2.0 | 17.0 | 0.00 | 0.02 | 0.00 | 35 | 1019.3 |
| 20260506185504 | 53 | 270 | 2.0 | 8.0 | 0.00 | 0.02 | 0.00 | 38 | 1019.6 |
| 20260506185004 | 53 | 266 | 3.0 | 8.0 | 0.00 | 0.02 | 0.00 | 40 | 1019.7 |
| 20260506184504 | 53 | 282 | 4.0 | 8.0 | 0.00 | 0.02 | 0.00 | 40 | 1019.7 |
| 20260506184003 | 53 | 296 | 3.0 | 8.0 | 0.00 | 0.02 | 0.00 | 40 | 1019.8 |
| 20260506183503 | 53 | 265 | 3.0 | 19.0 | 0.00 | 0.02 | 0.00 | 37 | 1019.8 |
| 20260506183004 | 53 | 277 | 3.0 | 19.0 | 0.00 | 0.02 | 0.00 | 40 | 1019.9 |
| 20260506182004 | 52 | 322 | 4.0 | 8.0 | 0.00 | 0.02 | 0.00 | 41 | 1020.1 |
| 20260506181503 | 52 | 302 | 3.0 | 7.0 | 0.00 | 0.02 | 0.00 | 43 | 1020.2 |
| 20260506181003 | 52 | 262 | 3.0 | 6.0 | 0.00 | 0.02 | 0.00 | 40 | 1020.3 |
| 20260506180504 | 53 | 172 | 2.0 | 6.0 | 0.00 | 0.02 | 0.00 | 42 | 1020.3 |
| 20260506180005 | 52 | 211 | 2.0 | 7.0 | 0.00 | 0.02 | 0.00 | 42 | 1020.4 |
| 20260506175504 | 51 | 312 | 2.0 | 7.0 | 0.00 | 0.02 | 0.00 | 42 | 1020.4 |
| 20260506174003 | 50 | 291 | 3.0 | 6.0 | 0.00 | 0.02 | 0.00 | 42 | 1020.4 |
| 20260506173504 | 49 | 283 | 4.0 | 8.0 | 0.00 | 0.02 | 0.00 | 44 | 1020.5 |
| 20260506173004 | 50 | 281 | 3.0 | 8.0 | 0.00 | 0.02 | 0.00 | 43 | 1020.4 |
| 20260506172003 | 50 | 319 | 3.0 | 6.0 | 0.00 | 0.02 | 0.00 | 44 | 1020.4 |
| 20260506171003 | 49 | 267 | 2.0 | 10.0 | 0.00 | 0.02 | 0.00 | 44 | 1020.4 |
| 20260506170504 | 49 | 301 | 3.0 | 10.0 | 0.00 | 0.02 | 0.00 | 44 | 1020.4 |
| 20260506170004 | 49 | 330 | 2.0 | 8.0 | 0.00 | 0.03 | 0.00 | 44 | 1020.4 |
| 20260506165503 | 50 | 31 | 2.0 | 8.0 | 0.00 | 0.03 | 0.00 | 45 | 1020.5 |
| 20260506163503 | 49 | 33 | 3.0 | 8.0 | 0.00 | 0.04 | 0.00 | 45 | 1020.5 |
| 20260506163003 | 49 | 17 | 4.0 | 9.0 | 0.00 | 0.04 | 0.00 | 46 | 1020.4 |
| 20260506162504 | 49 | 334 | 4.0 | 9.0 | 0.00 | 0.04 | 0.00 | 46 | 1020.6 |
| 20260506162004 | 48 | 300 | 3.0 | 7.0 | 0.00 | 0.04 | 0.00 | 48 | 1020.6 |
| 20260506161504 | 49 | 328 | 3.0 | 9.0 | 0.00 | 0.04 | 0.00 | 47 | 1020.6 |
| 20260506161004 | 49 | 12 | 5.0 | 9.0 | 0.00 | 0.04 | 0.00 | 46 | 1020.5 |
| 20260506160503 | 49 | 25 | 4.0 | 9.0 | 0.00 | 0.04 | 0.00 | 48 | 1020.5 |
| 20260506160003 | 48 | 55 | 4.0 | 9.0 | 0.00 | 0.05 | 0.00 | 50 | 1020.5 |
| 20260506155504 | 47 | 77 | 4.0 | 9.0 | 0.00 | 0.05 | 0.00 | 47 | 1020.2 |
| 20260506154504 | 48 | 71 | 2.0 | 6.0 | 0.00 | 0.05 | 0.00 | 48 | 1020.1 |
| 20260506154003 | 48 | 8 | 1.0 | 7.0 | 0.00 | 0.06 | 0.00 | 47 | 1020.0 |
| 20260506153503 | 48 | 4 | 1.0 | 7.0 | 0.00 | 0.06 | 0.00 | 46 | 1020.1 |
| 20260506153004 | 48 | 1 | 1.0 | 7.0 | 0.00 | 0.06 | 0.00 | 47 | 1020.0 |
| 20260506152503 | 48 | 356 | 1.0 | 7.0 | 0.00 | 0.06 | 0.00 | 47 | 1020.1 |
| 20260506152004 | 48 | 254 | 1.0 | 4.0 | 0.00 | 0.06 | 0.00 | 49 | 1020.2 |
| 20260506151504 | 48 | 236 | 1.0 | 4.0 | 0.00 | 0.06 | 0.00 | 48 | 1020.1 |
| 20260506151003 | 48 | 313 | 1.0 | 5.0 | 0.00 | 0.06 | 0.00 | 50 | 1020.1 |
| 20260506150504 | 47 | 60 | 2.0 | 10.0 | 0.00 | 0.06 | 0.00 | 49 | 1020.2 |
| 20260506150004 | 47 | 73 | 2.0 | 10.0 | 0.00 | 0.06 | 0.00 | 50 | 1020.2 |
| 20260506145504 | 47 | 33 | 1.0 | 7.0 | 0.00 | 0.06 | 0.00 | 49 | 1020.2 |
| 20260506145004 | 47 | 300 | 1.0 | 3.0 | 0.00 | 0.06 | 0.00 | 49 | 1020.3 |
| 20260506144503 | 47 | 90 | 1.0 | 7.0 | 0.00 | 0.06 | 0.00 | 54 | 1020.4 |
| 20260506144003 | 46 | 86 | 3.0 | 7.0 | 0.00 | 0.06 | 0.00 | 51 | 1020.3 |
| 20260506143504 | 47 | 84 | 2.0 | 6.0 | 0.00 | 0.07 | 0.00 | 50 | 1020.3 |
| 20260506142503 | 46 | 83 | 0.0 | 3.0 | 0.00 | 0.07 | 0.00 | 52 | 1020.4 |
| 20260506142003 | 46 | 86 | 0.0 | 3.0 | 0.00 | 0.07 | 0.00 | 53 | 1020.3 |
| 20260506141504 | 46 | 88 | 0.0 | 2.0 | 0.00 | 0.07 | 0.00 | 55 | 1020.3 |
| 20260506141004 | 45 | 83 | 1.0 | 4.0 | 0.00 | 0.08 | 0.00 | 57 | 1020.3 |
| 20260506140504 | 44 | 81 | 1.0 | 4.0 | 0.00 | 0.08 | 0.00 | 57 | 1020.3 |
| 20260506140004 | 44 | 78 | 1.0 | 4.0 | 0.00 | 0.08 | 0.00 | 59 | 1020.2 |
| 20260506135003 | 44 | 82 | 0.0 | 3.0 | 0.00 | 0.08 | 0.00 | 60 | 1020.2 |
| 20260506134504 | 44 | 82 | 0.0 | 4.0 | 0.00 | 0.09 | 0.00 | 62 | 1020.2 |
| 20260506133503 | 42 | 83 | 2.0 | 5.0 | 0.00 | 0.09 | 0.00 | 65 | 1019.9 |
| 20260506133004 | 42 | 83 | 1.0 | 3.0 | 0.00 | 0.10 | 0.00 | 64 | 1019.8 |
| 20260506132003 | 42 | 76 | 1.0 | 3.0 | 0.00 | 0.11 | 0.00 | 67 | 1019.9 |
| 20260506131503 | 41 | 80 | 1.0 | 3.0 | 0.00 | 0.11 | 0.00 | 67 | 1019.9 |
| 20260506131003 | 41 | 80 | 1.0 | 3.0 | 0.00 | 0.11 | 0.00 | 68 | 1019.9 |
| 20260506130503 | 41 | 79 | 2.0 | 3.0 | 0.00 | 0.11 | 0.00 | 70 | 1019.9 |
| 20260506130004 | 41 | 79 | 2.0 | 3.0 | 0.00 | 0.12 | 0.00 | 69 | 1019.7 |
| 20260506125503 | 40 | 79 | 1.0 | 3.0 | 0.00 | 0.12 | 0.00 | 70 | 1019.6 |
| 20260506125003 | 40 | 72 | 0.0 | 1.0 | 0.00 | 0.12 | 0.00 | 71 | 1019.6 |
| 20260506124504 | 40 | 87 | 0.0 | 4.0 | 0.00 | 0.12 | 0.00 | 71 | 1019.5 |
| 20260506124004 | 40 | 90 | 0.0 | 4.0 | 0.00 | 0.12 | 0.00 | 71 | 1019.4 |
| 20260506123503 | 40 | 79 | 1.0 | 2.0 | 0.00 | 0.12 | 0.00 | 72 | 1019.3 |
| 20260506123003 | 40 | 76 | 1.0 | 2.0 | 0.00 | 0.13 | 0.00 | 72 | 1019.3 |
| 20260506122503 | 40 | 80 | 1.0 | 3.0 | 0.00 | 0.13 | 0.00 | 71 | 1019.1 |
| 20260506122004 | 40 | 78 | 1.0 | 3.0 | 0.00 | 0.13 | 0.00 | 72 | 1019.1 |
| 20260506121504 | 40 | 76 | 1.0 | 3.0 | 0.00 | 0.13 | 0.00 | 72 | 1019.1 |
| 20260506121003 | 40 | 0 | 0.0 | 0.0 | 0.00 | 0.13 | 0.00 | 73 | 1019.1 |
| 20260506120503 | 40 | 319 | 0.0 | 1.0 | 0.00 | 0.13 | 0.00 | 73 | 1019.1 |
| 20260506120004 | 40 | 331 | 0.0 | 1.0 | 0.00 | 0.13 | 0.00 | 74 | 1019.1 |
| 20260506115504 | 39 | 1 | 0.0 | 1.0 | 0.00 | 0.13 | 0.00 | 74 | 1019.0 |
| 20260506114503 | 39 | 0 | 0.0 | 0.0 | 0.00 | 0.14 | 0.00 | 75 | 1018.8 |